Theta_e
315 315 314 315 314 314 315 315 315 315 315 314 312 310 309 309 307 306 305 305 306 307 306 306 308 307 308 309 307 307 307 309 315 317 319 320 316 314 313 312 314 313 313 313 313 314 314 314 315 315 317 318 322 324 322 322 323 324 326 323 320 320 321 321 321 320 320 319 317 317 318 317 317 316 315 315 315 316 316 316 316 317 317 317 326 333 332 330
315 314 314 314 314 314 314 314 315 314 314 314 312 310 309 308 307 306 306 305 305 306 307 307 307 307 308 308 307 308 306 309 316 319 320 318 313 312 313 313 314 313 313 315 315 314 314 315 315 314 317 319 321 323 323 322 321 324 324 321 321 323 321 320 319 318 320 319 316 316 317 317 317 316 315 315 315 315 315 316 316 317 317 315 322 330 330 329
314 314 313 313 313 314 314 314 314 314 313 313 312 310 308 307 306 306 306 305 305 306 306 307 307 308 308 307 308 306 308 314 316 318 319 315 312 313 313 313 314 313 314 318 318 315 315 315 315 314 316 317 318 320 322 322 320 321 324 322 322 321 319 318 318 318 318 318 317 317 317 317 317 316 315 315 315 316 315 316 316 316 318 317 318 326 328 328
314 314 313 313 313 313 313 313 314 313 312 311 310 309 308 307 306 306 306 306 306 305 306 307 307 308 307 307 307 307 314 318 316 318 317 312 312 313 312 313 313 313 314 315 315 315 315 315 314 314 316 316 317 318 319 320 320 320 321 321 319 318 318 317 317 317 317 318 318 317 317 317 316 317 315 316 315 316 316 316 317 315 317 318 316 322 326 326
313 313 312 312 312 312 312 313 313 312 312 311 309 309 308 307 307 306 306 306 306 305 306 306 307 307 307 307 306 311 319 315 316 320 314 311 313 312 312 312 313 313 313 314 314 314 314 314 314 315 316 316 317 317 317 317 318 319 318 318 317 318 318 316 316 316 317 318 318 317 316 316 317 317 316 317 316 316 317 317 318 317 319 319 316 320 323 326
312 313 312 311 311 311 311 312 312 312 312 312 310 309 308 307 307 306 306 306 306 306 306 306 307 307 307 308 306 313 321 314 317 321 313 312 312 311 313 312 314 314 313 314 315 315 314 315 315 316 316 316 316 315 316 316 316 318 318 316 316 317 318 316 315 316 317 318 318 316 316 316 316 317 316 317 316 316 318 319 319 318 320 319 316 319 321 325
312 312 312 311 311 311 311 311 311 312 312 312 311 310 309 307 307 307 306 306 306 306 306 306 307 307 307 309 308 314 319 315 317 318 311 312 312 312 313 312 314 314 314 316 315 315 315 315 315 315 315 315 316 315 316 316 315 317 317 316 316 317 316 315 315 314 315 316 316 316 316 316 317 317 317 317 317 317 318 319 317 315 317 318 318 319 319 322
312 312 311 310 310 310 311 310 311 311 311 312 312 311 309 308 307 306 306 306 306 306 306 307 306 307 307 312 315 315 316 317 318 315 311 312 311 312 313 313 315 315 317 316 315 315 315 316 315 315 316 316 316 315 316 315 314 316 316 316 316 316 315 314 314 314 315 315 315 315 316 317 317 316 317 318 317 318 318 318 317 315 316 317 319 320 320 320
312 312 312 311 309 309 310 310 310 310 311 311 311 311 309 308 307 306 306 306 306 306 307 306 307 308 307 314 319 315 315 318 317 314 311 312 312 312 313 316 315 316 317 316 315 315 316 316 316 317 317 316 316 316 316 315 315 316 317 317 316 316 315 314 315 315 315 315 315 316 316 317 316 315 316 317 317 317 318 319 318 318 317 317 318 320 321 321
312 312 312 311 310 309 309 309 309 310 311 311 311 310 309 309 308 307 306 306 306 306 307 307 308 308 309 314 316 313 316 317 315 314 312 311 312 312 314 315 315 317 317 315 315 315 317 318 317 318 318 316 316 316 317 317 317 317 317 317 317 316 315 315 316 314 316 316 315 316 317 317 316 316 317 317 318 317 318 319 318 318 318 317 317 318 317 319
312 312 311 311 310 309 309 309 309 309 310 311 311 310 309 309 308 307 307 307 307 307 307 308 308 309 314 315 313 314 318 316 315 313 311 312 312 313 315 314 314 318 318 316 317 317 318 318 317 317 318 317 316 317 317 317 317 317 317 317 317 317 316 316 316 315 316 316 315 315 317 317 316 317 317 318 320 319 318 319 318 318 319 318 318 317 316 316
312 311 311 310 309 309 309 309 309 309 310 310 311 310 309 308 307 307 307 307 307 307 307 308 308 310 315 314 313 316 317 315 314 312 312 313 312 313 314 314 315 316 317 318 317 316 316 317 318 317 316 317 315 316 317 317 317 317 317 317 317 317 317 317 316 317 316 316 316 316 317 318 317 319 318 318 320 318 318 318 318 318 318 319 319 319 319 317
311 311 310 310 309 309 309 309 309 310 310 311 310 310 308 307 307 306 307 307 307 307 307 309 309 311 314 314 315 317 315 313 313 311 312 312 313 314 314 315 315 315 316 318 316 314 315 316 318 318 317 318 316 316 316 317 317 317 317 317 318 317 317 317 317 318 317 316 317 316 318 319 318 318 318 319 320 318 318 319 319 319 319 320 320 320 321 319
311 310 310 309 309 309 310 309 310 310 311 311 310 308 307 307 306 306 307 307 308 308 309 309 309 312 313 312 315 316 314 312 312 312 313 314 315 315 315 315 315 315 316 315 315 315 315 317 318 317 317 317 317 316 317 317 317 318 317 318 320 317 317 318 318 318 317 316 317 316 317 318 317 319 320 320 319 318 319 319 319 319 319 320 321 322 322 320
311 309 309 309 309 309 310 309 310 311 311 310 308 307 307 307 306 307 307 307 309 309 309 310 311 313 312 311 315 316 312 313 315 314 313 315 317 316 315 315 315 316 315 315 315 316 317 317 318 317 316 316 317 317 318 317 317 318 317 318 319 318 318 320 318 318 318 316 317 317 317 318 317 319 320 319 318 318 318 319 319 319 319 320 322 322 322 321
310 309 309 310 310 310 310 310 311 311 311 309 307 307 307 307 307 307 307 308 311 310 311 315 314 312 312 313 316 316 313 315 316 314 313 316 319 317 316 315 316 316 315 316 316 317 317 317 320 320 317 316 317 319 320 318 317 319 318 317 319 318 318 319 318 317 318 317 317 317 318 318 318 319 319 318 319 318 318 319 318 319 320 320 322 321 322 321
310 309 310 310 310 310 311 311 311 311 309 308 307 307 308 308 308 308 308 309 312 310 312 317 313 310 311 313 314 315 316 318 316 313 313 317 318 316 316 316 317 316 316 317 317 318 317 317 320 320 317 316 318 319 319 318 317 319 319 317 319 319 317 317 317 318 318 317 317 318 318 317 317 318 318 319 319 319 320 319 319 320 321 322 323 323 322 321
310 310 310 311 311 311 311 312 312 310 308 307 308 309 309 309 310 311 311 310 312 310 310 312 311 311 311 310 314 316 318 318 316 313 314 316 316 316 317 317 316 317 317 317 317 317 318 317 318 319 318 317 317 318 319 319 318 318 319 317 317 318 316 316 317 318 317 317 317 318 317 317 317 317 318 318 319 320 320 320 320 320 320 321 322 323 322 321
310 310 310 311 312 312 311 312 312 310 308 309 310 310 310 312 313 315 315 312 311 310 310 311 311 312 312 312 317 318 317 316 315 314 313 314 315 316 317 316 317 318 316 317 317 316 319 320 318 321 321 317 317 318 319 320 316 316 318 317 316 316 316 316 317 316 317 317 317 318 317 316 317 317 318 318 319 320 319 320 320 320 320 320 320 320 320 321
311 311 310 310 311 312 312 312 312 310 309 312 313 313 314 315 314 313 314 313 312 310 311 312 311 312 315 317 317 316 315 315 315 316 315 314 315 316 316 317 319 319 317 319 319 318 319 322 322 323 321 318 317 317 317 317 315 315 317 318 317 316 315 317 318 316 316 317 316 317 317 316 317 317 318 318 319 320 319 319 319 320 321 320 320 320 319 320
313 312 312 312 312 312 312 312 311 310 310 314 317 318 314 314 312 311 313 311 311 312 311 313 313 314 317 316 314 315 315 315 316 317 315 315 316 316 316 317 318 317 318 320 320 317 318 322 324 321 319 317 317 317 317 316 315 315 317 318 318 318 318 317 318 316 315 317 317 317 316 315 316 316 318 319 318 318 318 318 319 318 319 321 322 322 321 319
314 314 314 313 313 313 313 312 312 310 311 314 317 319 315 313 311 312 313 311 312 313 312 312 312 313 316 316 314 316 317 314 316 319 316 315 317 316 316 316 315 316 319 320 319 319 319 320 320 317 317 318 317 317 316 316 317 317 318 318 319 321 319 317 317 316 315 317 317 316 316 315 315 316 316 317 317 317 317 317 318 319 319 321 322 322 322 321
315 315 315 315 314 313 314 314 312 310 311 314 316 317 316 312 308 309 314 313 314 314 312 312 312 312 315 315 315 317 317 314 316 319 316 315 317 317 316 315 315 317 319 318 319 320 319 318 317 317 318 317 317 316 316 316 318 320 320 318 320 322 319 316 316 317 316 316 317 318 318 317 316 318 317 317 317 316 316 318 319 322 322 322 323 323 323 324
317 316 315 316 314 314 314 314 313 312 313 315 316 317 316 312 308 311 316 315 312 314 313 312 313 314 314 315 315 316 315 314 317 317 315 315 316 316 316 314 314 317 318 316 317 319 318 317 317 317 317 317 317 317 318 317 317 321 323 320 320 321 320 318 318 319 317 317 320 321 321 322 321 321 322 320 319 317 317 319 321 324 326 326 327 326 326 328
318 317 317 316 315 315 315 315 316 316 315 314 314 315 313 311 309 311 316 314 312 314 313 313 314 314 314 314 315 315 314 314 317 316 314 316 316 315 317 315 314 316 316 317 316 317 317 317 318 319 317 317 318 318 320 320 317 318 324 324 321 319 321 323 322 321 318 317 321 322 322 324 322 320 321 319 320 320 320 322 323 324 326 327 328 327 328 329
319 319 318 317 316 316 315 317 319 316 315 313 314 313 310 310 309 311 314 312 312 313 312 312 312 311 313 315 315 315 313 314 316 316 315 316 315 314 315 315 315 315 315 317 316 317 317 316 319 322 321 322 322 320 322 323 317 314 323 328 324 322 324 323 321 321 318 317 321 321 321 321 316 314 316 315 315 317 318 322 324 323 323 326 327 327 328 329
320 320 319 318 318 317 317 319 318 315 316 316 315 312 309 310 310 312 314 312 313 313 311 310 309 310 313 314 314 313 312 315 315 316 316 315 315 315 314 314 315 315 315 318 319 319 319 319 322 323 323 326 323 320 322 322 318 319 326 328 324 323 325 323 321 321 320 321 324 323 321 322 319 316 316 316 315 316 316 318 321 322 322 324 328 330 331 331
319 319 320 319 318 318 318 318 317 316 317 314 312 310 309 310 311 312 312 313 316 314 312 311 308 311 315 314 314 312 311 314 315 316 315 314 315 315 314 314 314 314 316 319 319 319 320 322 325 324 323 324 322 324 327 322 320 324 326 326 325 325 325 323 321 322 323 323 325 326 323 322 322 320 320 321 318 317 318 319 321 321 321 323 328 333 334 333
318 318 319 319 319 318 317 318 318 318 317 313 310 309 310 311 311 313 312 312 316 314 311 311 310 313 315 314 314 312 312 314 315 316 314 313 315 314 313 314 314 315 315 316 319 322 321 319 322 324 323 322 322 326 330 326 323 325 325 325 326 327 325 324 322 322 323 321 322 329 325 318 316 315 318 322 319 318 320 320 322 323 326 330 333 334 333 332
317 318 318 319 319 317 317 318 318 318 318 313 310 309 311 313 312 311 312 313 316 315 310 309 311 314 314 312 312 312 313 315 315 315 314 314 314 314 314 314 315 318 319 318 320 320 317 314 317 321 320 320 320 321 325 327 325 325 326 325 324 324 324 324 323 322 323 320 321 329 326 316 313 314 318 321 320 321 320 318 321 326 331 335 336 335 332 331
316 317 317 317 317 316 318 319 318 319 318 312 309 311 313 315 313 309 311 313 316 316 310 309 312 313 312 312 312 311 313 315 315 314 315 315 315 314 315 315 316 321 322 321 321 320 318 318 319 320 317 318 319 320 322 323 324 325 324 323 322 323 323 323 323 325 323 320 322 327 325 318 314 315 319 321 319 320 320 317 321 327 332 337 337 333 330 330
315 317 317 317 317 317 318 319 318 319 316 310 310 314 314 314 313 312 312 312 314 316 313 313 313 312 312 313 313 312 313 316 315 315 316 317 316 314 315 316 317 321 321 321 321 322 323 322 321 320 317 317 320 323 322 320 323 326 323 321 322 322 324 325 326 329 326 320 322 325 323 319 315 314 318 319 316 318 319 320 324 325 328 334 337 335 333 332
314 316 316 317 317 317 317 318 317 317 314 311 313 317 318 314 311 313 313 311 314 317 316 315 313 313 312 313 314 314 315 317 316 315 317 317 317 316 316 317 316 318 319 319 321 323 323 323 323 320 317 318 320 322 321 319 322 324 322 323 323 320 321 324 325 328 327 323 322 322 322 322 319 316 318 317 317 319 320 321 325 326 326 329 332 334 337 336
312 315 316 316 317 317 317 317 317 315 313 314 317 319 318 315 312 312 313 314 317 318 317 316 314 314 313 314 316 314 315 317 316 316 318 318 318 318 317 316 316 317 316 316 321 323 321 324 324 319 318 319 319 319 320 320 320 321 320 321 323 319 318 320 320 324 327 325 321 319 322 325 322 319 319 318 319 322 322 323 325 327 330 328 327 331 335 335
309 313 315 316 316 316 317 316 317 316 314 318 321 317 315 314 314 313 313 316 318 317 317 317 316 314 314 318 319 315 316 320 317 317 320 319 317 318 317 316 315 317 317 316 319 320 319 322 323 320 319 318 318 319 318 319 319 319 319 319 322 321 315 316 319 321 322 322 321 323 326 326 321 317 316 316 317 318 317 321 325 326 326 325 327 333 333 331
308 311 313 315 316 316 316 316 316 315 315 319 319 315 313 314 316 316 316 318 318 318 317 317 317 316 315 319 321 317 317 321 320 319 321 320 318 318 318 317 315 315 316 316 318 320 319 322 324 321 318 317 319 322 321 321 320 319 321 321 323 322 316 317 321 321 318 318 320 322 322 319 315 314 315 315 315 315 314 317 321 323 324 324 328 333 330 328
309 310 311 313 315 316 316 316 315 314 316 319 315 313 315 316 317 319 320 319 317 317 317 317 318 317 316 318 320 318 318 320 321 319 320 320 319 319 318 318 317 315 316 315 316 320 321 323 323 321 319 319 320 322 322 324 323 323 324 321 320 322 320 318 319 321 321 319 317 316 315 315 312 313 317 318 316 316 316 317 317 319 323 326 328 329 326 328
309 309 310 311 313 315 316 316 314 313 316 318 315 314 316 317 317 318 318 318 317 317 317 317 318 317 317 317 318 318 317 319 320 319 318 318 319 319 317 317 319 317 316 315 316 320 320 319 320 319 320 319 318 318 321 322 321 323 324 321 320 323 324 321 317 318 320 318 318 318 316 315 314 312 315 316 316 317 318 319 319 318 322 326 328 328 329 334
308 308 308 309 310 314 316 314 313 313 315 317 316 315 314 314 315 316 317 317 318 320 318 316 317 318 318 318 317 318 316 316 319 318 317 317 318 319 317 317 321 319 316 316 316 318 319 319 320 318 317 318 317 318 321 322 320 319 320 320 322 323 323 323 319 317 318 317 317 318 317 317 315 313 314 315 316 317 317 318 321 321 323 327 327 329 338 343
307 307 308 309 309 313 314 312 313 314 315 314 315 315 315 314 314 314 316 317 318 320 320 320 320 318 319 319 318 319 316 316 319 318 317 317 317 319 317 317 320 320 317 317 317 318 318 318 321 318 316 319 320 318 319 320 320 318 319 321 323 321 321 324 322 319 319 318 317 317 317 316 313 313 315 316 317 318 318 320 323 324 325 325 326 332 345 346
306 306 308 311 311 312 313 312 314 316 315 313 312 313 314 315 315 315 315 317 318 318 318 319 320 320 322 321 319 319 317 317 319 318 317 316 317 320 319 317 320 321 319 319 318 318 317 316 320 320 318 319 320 317 317 318 318 317 317 318 320 320 321 322 321 320 320 320 319 319 319 317 315 316 316 315 316 318 322 325 324 324 323 322 330 340 341 337
304 305 308 312 312 312 313 313 315 316 315 314 312 313 314 315 316 317 316 316 317 317 318 318 319 321 323 322 321 321 319 318 319 319 318 317 317 320 320 317 318 319 319 320 319 318 317 317 320 322 320 319 319 319 320 322 321 320 318 317 317 318 319 320 321 322 323 322 320 320 322 318 315 317 316 316 320 320 323 324 320 321 322 321 332 342 337 331
303 304 308 312 312 312 313 313 314 315 315 314 313 313 314 315 317 318 317 317 317 317 318 319 319 320 321 321 321 323 322 320 321 321 321 319 319 321 321 318 320 320 318 320 320 319 319 319 319 320 319 320 320 320 320 319 320 322 323 321 319 318 319 320 321 323 326 325 322 322 321 317 316 321 322 323 324 321 321 321 319 323 326 326 333 338 336 332
302 303 307 311 312 312 312 311 312 313 313 314 314 314 314 315 316 317 317 316 316 317 317 318 318 319 319 320 321 323 322 321 322 323 322 321 321 323 323 321 320 319 319 322 322 319 319 321 321 319 319 321 322 322 321 319 319 321 322 323 322 321 322 322 321 320 322 325 324 322 320 316 319 327 327 324 322 319 320 323 322 324 327 331 335 334 331 329
302 302 304 308 311 312 311 310 310 311 312 313 314 315 315 316 315 316 317 316 315 317 317 318 318 318 318 319 320 320 320 320 322 322 321 320 320 322 325 324 320 317 320 324 321 318 321 322 320 319 320 321 322 324 325 322 320 320 321 322 322 324 326 324 323 322 320 321 321 321 319 316 316 320 321 320 320 319 320 322 323 324 326 330 333 333 330 327
302 302 302 305 309 311 312 311 310 311 311 311 313 314 315 316 315 315 316 316 315 315 316 317 317 317 318 319 318 317 317 319 320 321 320 320 319 320 322 323 320 319 320 321 321 323 326 324 319 318 319 319 320 324 324 321 320 319 319 321 321 323 325 324 323 323 321 319 319 319 318 317 316 315 315 316 318 318 318 318 320 322 324 328 330 331 331 330
303 303 302 304 307 309 311 311 310 311 311 311 311 312 313 314 315 315 316 315 315 315 315 316 317 317 317 317 316 316 316 318 319 319 319 319 319 320 320 318 317 318 319 319 322 326 324 320 319 320 318 318 319 321 321 320 320 319 319 319 320 321 323 323 323 321 319 320 320 318 318 319 317 315 314 316 317 318 317 317 318 319 322 326 328 328 330 332
303 303 302 303 305 306 308 309 310 310 311 311 310 311 312 313 313 315 316 315 315 315 316 317 317 317 317 316 316 316 317 318 318 318 318 318 318 320 319 317 315 316 319 319 321 326 324 319 319 320 318 318 319 319 319 319 319 320 320 320 320 320 321 322 322 320 319 320 319 318 319 320 317 315 315 316 317 317 316 316 318 318 319 321 323 325 327 329
301 302 303 304 304 305 306 307 309 310 310 310 310 310 311 312 312 313 315 315 315 316 315 316 317 317 317 316 316 317 317 318 318 318 317 318 318 319 319 319 316 315 318 319 318 322 323 319 318 318 318 319 319 318 319 319 319 319 320 321 321 320 320 320 319 319 319 319 318 317 319 318 316 316 315 315 316 317 316 316 317 316 317 318 319 321 323 323
301 301 303 304 305 305 305 306 308 310 309 309 310 310 310 310 311 312 313 315 315 315 315 316 316 316 317 317 317 317 317 317 318 317 317 317 318 318 318 320 318 315 315 317 315 317 319 318 317 317 317 318 317 317 318 318 319 320 320 321 321 321 321 319 318 318 319 319 318 318 319 318 316 315 316 316 316 316 316 316 316 316 316 317 319 320 320 320
301 301 303 304 305 305 305 306 307 309 309 309 309 309 309 310 310 310 311 314 315 315 315 315 315 316 316 316 316 316 316 317 318 318 318 317 317 317 317 318 319 316 314 315 316 315 316 317 317 317 318 319 318 318 318 318 319 320 320 320 319 320 321 320 320 320 319 319 319 319 319 318 316 316 317 317 316 317 317 316 316 316 317 317 318 319 319 319
301 301 302 303 304 304 305 305 306 308 309 309 308 308 309 309 310 310 311 313 314 314 314 314 315 314 315 315 315 315 317 317 316 316 317 317 317 317 317 318 318 316 313 314 315 315 315 316 317 318 319 319 318 319 319 318 319 320 320 319 318 318 319 319 320 320 320 319 320 320 319 317 316 317 317 316 316 316 316 316 316 316 317 318 319 320 320 319
Wind_Speed
9 8 7 6 5 5 4 4 4 3 3 4 5 6 6 6 6 6 7 7 7 7 8 8 8 7 7 6 6 5 6 4 3 6 6 4 2 5 6 4 3 3 4 4 5 4 4 5 5 5 5 3 1 2 1 0 1 1 1 1 3 4 2 2 3 3 4 6 5 6 7 6 6 4 2 2 1 2 3 4 5 6 7 10 14 17 18 18
9 9 7 6 6 5 4 4 3 3 4 5 6 6 6 6 6 6 6 7 7 7 8 8 8 8 7 6 5 5 5 4 4 7 7 5 4 5 5 3 3 3 3 4 5 7 6 4 6 6 4 2 1 1 1 1 1 2 1 3 3 1 2 3 5 5 3 4 6 6 7 5 6 7 4 3 4 5 4 4 5 6 7 10 14 16 17 17
10 9 8 7 6 6 4 3 3 4 5 5 6 6 6 6 6 6 6 7 7 8 8 8 9 8 7 6 5 5 4 2 3 4 7 7 6 5 4 3 3 3 4 3 4 6 7 6 5 7 4 2 2 1 1 1 1 1 0 2 2 2 3 7 8 7 5 3 5 7 3 2 4 6 4 3 5 6 7 5 6 7 7 9 11 15 17 16
11 8 8 8 7 6 4 3 4 4 5 5 5 5 5 5 5 6 7 7 7 8 8 9 9 7 7 5 5 4 1 1 1 4 9 9 7 6 5 3 2 2 3 3 4 6 8 10 4 6 4 2 2 1 3 2 1 0 1 1 3 3 3 6 7 6 5 5 2 6 2 1 3 4 4 4 3 4 6 6 7 8 11 12 11 14 17 16
11 9 8 8 7 5 4 4 3 3 3 4 4 5 5 5 5 5 6 7 7 8 8 9 8 7 7 5 4 2 1 1 0 4 10 11 9 7 4 3 3 2 3 2 3 5 7 8 4 3 4 2 4 2 3 3 1 0 1 3 4 4 3 4 5 6 5 4 2 6 2 0 3 2 3 5 4 3 2 2 2 1 5 13 14 13 15 14
11 10 9 8 7 5 5 4 3 2 2 2 3 4 5 5 5 5 6 7 7 8 9 9 8 7 6 4 3 3 1 1 1 3 9 11 9 6 4 3 3 2 2 1 4 5 4 6 4 3 3 2 5 4 3 4 2 0 1 4 5 5 3 3 3 4 6 4 2 2 0 2 3 1 4 6 6 3 5 6 7 7 7 16 17 13 13 11
12 12 10 9 7 5 5 4 4 3 3 3 3 4 5 6 5 6 6 7 7 8 8 8 7 6 5 3 3 3 2 1 2 4 9 10 8 6 4 3 2 1 2 2 6 5 4 5 4 4 4 3 5 5 2 3 2 1 1 4 3 4 4 3 3 1 4 4 3 2 3 1 2 2 1 5 8 5 4 8 8 8 11 15 14 11 11 12
13 13 12 10 8 6 5 5 4 4 4 4 4 4 6 6 6 6 6 7 7 8 8 8 7 5 5 5 2 2 2 1 3 6 10 9 7 5 3 3 3 2 1 4 6 3 4 5 5 4 3 1 3 5 2 3 3 3 1 4 2 3 4 4 4 2 2 2 2 3 4 3 2 1 3 5 7 6 4 7 8 8 9 10 10 10 10 11
15 15 14 12 10 8 6 6 5 5 4 4 5 5 5 6 6 6 6 6 7 8 8 8 6 5 6 5 1 2 2 4 5 7 9 8 6 4 3 2 2 3 3 4 5 5 3 3 4 2 1 1 2 4 1 2 2 1 3 5 3 4 4 3 4 3 1 0 1 2 5 3 3 2 4 9 8 8 6 6 7 7 7 6 8 10 10 9
14 15 15 15 13 9 7 7 6 5 4 4 5 4 4 6 6 6 7 7 7 8 8 7 6 5 6 4 1 2 1 5 6 6 9 8 5 4 2 1 0 3 4 2 2 4 3 3 3 3 3 1 2 2 2 2 1 1 4 5 4 5 4 1 2 4 1 0 1 3 5 2 3 1 5 6 5 7 7 6 7 7 7 7 7 8 9 10
13 14 15 16 13 9 8 7 6 5 5 4 4 3 4 5 6 7 7 7 7 8 8 7 6 6 5 3 3 2 1 4 6 7 9 7 5 3 1 1 1 2 4 0 2 3 3 6 6 3 2 1 3 2 3 1 3 1 5 6 4 4 4 2 3 4 2 0 1 3 5 5 2 2 8 5 0 4 7 6 6 6 6 7 7 7 8 9
13 13 14 14 12 10 8 8 7 5 4 3 3 3 4 5 6 7 7 7 8 8 8 6 6 6 4 1 3 2 3 4 6 8 8 6 5 3 1 0 1 1 5 1 3 2 2 5 6 2 2 1 3 3 1 2 2 2 3 3 5 4 3 5 4 4 3 1 1 1 4 8 5 8 14 7 5 4 6 6 6 6 6 6 7 7 7 9
14 14 13 12 11 10 8 7 7 4 3 2 2 2 4 4 5 6 7 7 8 8 7 6 6 6 3 1 1 3 5 6 7 7 7 6 4 2 2 1 1 1 3 2 5 3 4 4 5 2 2 3 2 2 1 2 1 2 3 1 4 3 3 7 6 4 3 1 1 1 2 7 6 11 12 7 8 6 6 6 6 6 6 6 7 6 6 9
13 13 12 12 11 9 8 7 6 4 3 3 3 3 3 4 4 5 6 6 6 6 6 5 5 5 1 0 2 4 5 9 8 7 8 7 5 4 4 3 3 3 3 6 6 4 5 5 3 3 2 3 2 2 1 2 0 1 2 1 2 2 2 5 5 5 4 1 2 2 1 7 7 5 1 5 8 7 6 7 7 6 6 7 7 7 6 8
13 12 12 12 10 9 8 7 6 4 4 3 3 3 3 4 4 4 5 5 4 4 4 4 5 4 1 1 1 4 7 8 6 6 9 9 6 5 5 5 7 6 6 8 8 6 5 3 2 3 2 2 2 2 2 3 2 1 2 2 3 2 1 2 2 5 4 1 2 3 2 7 8 2 4 4 5 4 5 6 6 6 6 7 7 7 7 7
12 11 11 11 10 9 8 6 5 5 4 3 3 3 4 3 4 4 4 4 3 4 4 3 5 3 1 1 3 4 5 4 5 8 10 9 6 6 7 7 8 6 6 7 7 6 4 3 1 0 1 0 2 3 3 3 1 2 2 3 3 3 3 2 1 0 3 1 3 4 3 5 4 2 5 3 5 5 4 5 7 7 7 7 6 7 7 7
13 12 11 11 9 8 7 5 5 3 2 3 4 4 5 4 5 4 4 5 5 5 3 1 4 4 1 2 3 3 4 5 7 9 10 9 7 8 9 6 5 4 4 4 3 2 2 2 1 1 1 1 3 3 2 2 3 3 3 3 2 3 3 2 1 1 2 1 3 5 6 6 8 6 3 4 6 7 6 7 7 6 7 7 6 7 7 8
13 12 12 11 9 7 6 5 4 3 3 4 5 6 7 7 7 6 6 7 6 4 0 3 1 3 1 2 3 3 7 9 9 9 10 8 8 9 5 3 4 5 4 2 0 0 1 1 1 0 1 2 4 3 4 3 2 2 4 4 3 3 4 2 1 2 4 1 3 5 6 8 10 12 10 8 7 8 8 8 8 7 8 7 7 7 7 8
12 12 12 11 10 8 6 5 4 3 4 6 8 10 10 9 8 6 4 5 4 2 0 2 4 2 1 4 4 6 8 11 9 6 7 7 7 7 2 2 4 3 3 2 1 1 1 2 1 0 3 4 4 4 4 1 3 2 1 1 2 2 3 1 3 1 2 2 4 6 8 9 10 11 11 9 8 8 8 8 7 8 8 8 8 8 9 9
11 10 10 10 9 8 5 5 4 5 7 9 10 8 7 5 4 3 3 4 3 0 2 1 4 2 3 4 5 8 10 8 5 3 5 7 6 5 3 3 2 1 2 3 2 0 1 2 2 3 5 5 7 7 3 3 5 4 3 2 3 2 2 2 4 0 2 1 5 7 8 11 10 10 10 8 8 8 8 8 8 8 8 8 9 10 11 11
10 9 9 9 8 7 5 4 4 6 9 11 8 3 1 3 2 2 4 4 6 0 4 2 2 3 4 7 9 9 6 3 1 3 6 7 5 4 4 4 3 1 3 3 4 1 2 2 4 6 4 1 2 3 4 4 4 3 2 3 3 2 1 3 3 1 2 2 4 6 8 11 10 8 9 8 9 10 9 9 10 10 10 9 9 11 12 10
11 9 9 9 8 6 4 3 4 5 8 10 6 3 1 2 0 2 3 3 5 3 4 2 2 3 4 7 9 5 1 2 3 3 6 7 4 3 4 4 4 4 3 4 4 2 2 3 6 5 3 6 5 5 6 4 3 2 0 1 2 2 1 3 3 0 1 1 4 6 7 12 12 9 10 10 10 12 12 11 11 10 10 9 9 11 11 9
11 10 9 8 7 5 2 1 3 4 7 8 5 3 1 2 1 2 1 1 2 3 3 2 3 4 5 2 6 5 2 5 5 4 8 8 4 2 4 6 5 4 5 5 4 4 3 4 5 3 5 5 4 4 4 2 1 1 2 1 2 2 1 0 2 1 3 3 4 6 6 10 13 10 10 13 14 14 12 10 10 9 9 10 10 10 9 9
11 10 9 8 6 4 2 0 1 2 5 6 6 4 2 2 1 2 0 1 1 2 1 2 2 3 5 3 6 6 2 2 3 6 11 9 4 2 3 6 7 4 5 6 6 5 3 1 1 5 4 3 4 3 3 3 2 4 5 4 4 3 1 2 2 2 4 2 2 6 6 7 8 8 8 7 9 11 9 8 9 9 9 9 9 10 8 8
11 10 9 8 6 4 1 1 1 1 4 5 5 7 5 3 2 2 1 1 2 1 2 1 1 2 6 6 6 5 0 1 2 5 13 9 3 3 2 3 4 5 6 8 7 6 3 1 0 5 3 2 4 4 5 5 3 4 5 4 4 4 2 4 4 4 3 2 1 3 4 5 5 6 8 6 3 6 6 7 9 10 9 8 9 9 8 7
13 12 11 9 7 5 2 1 2 3 3 2 3 7 8 4 1 2 2 1 2 2 1 3 3 5 9 6 5 3 2 1 3 4 10 5 1 1 1 1 1 2 5 6 3 2 2 1 1 5 5 4 3 2 4 6 2 3 3 2 2 2 4 4 3 3 1 3 3 2 0 6 6 8 11 10 9 10 7 7 10 9 9 9 8 8 7 7
15 13 13 12 10 7 2 1 3 3 2 2 3 6 7 5 1 1 2 1 3 4 4 2 1 6 10 7 7 4 1 4 3 3 3 2 1 2 1 4 3 1 3 2 1 0 3 3 2 4 4 5 4 3 4 7 3 2 3 3 1 4 5 3 3 1 2 3 3 4 3 5 7 8 11 11 12 12 9 9 10 9 10 9 8 7 7 7
14 16 15 14 13 10 3 2 2 2 1 2 3 6 7 5 2 1 2 1 2 4 4 1 1 4 6 4 6 4 2 5 4 1 2 2 1 2 1 4 4 5 2 3 3 1 2 5 5 5 4 4 4 1 3 8 4 2 3 1 2 5 4 2 2 1 2 4 3 4 4 3 7 6 7 9 10 10 9 9 10 11 12 8 6 7 6 5
7 15 16 15 16 12 5 1 1 1 2 5 3 6 7 5 2 1 1 2 2 3 1 2 3 4 4 4 4 4 3 2 0 1 2 2 1 1 1 2 3 6 6 5 4 1 2 3 3 5 5 4 3 3 2 3 3 3 4 2 5 5 3 3 2 1 3 3 4 6 6 3 8 5 5 6 6 8 8 8 9 9 7 5 6 7 6 6
2 10 16 16 15 14 10 4 5 4 3 5 1 8 7 2 1 2 3 3 2 2 1 1 2 5 8 7 4 4 4 2 2 3 2 2 1 1 1 0 2 2 4 3 1 2 1 1 1 1 2 3 5 5 5 3 4 4 4 4 5 3 4 3 1 4 3 4 4 7 10 5 5 4 4 4 5 7 6 5 5 2 4 6 7 7 6 5
1 5 13 17 16 15 10 3 5 6 4 1 7 8 5 1 0 5 5 1 0 2 2 2 4 8 12 11 6 5 5 4 4 6 3 2 2 1 1 1 2 3 2 1 1 2 2 1 1 0 1 2 5 4 5 4 3 3 3 4 4 2 4 3 2 4 1 6 2 2 8 8 5 4 3 3 1 4 3 3 3 5 7 6 6 6 6 6
3 3 9 17 17 15 10 2 3 4 1 4 8 4 2 2 1 5 4 2 0 3 5 5 7 10 12 11 7 7 7 5 6 7 6 5 4 4 5 4 4 3 0 3 1 1 1 3 3 2 3 1 5 4 4 5 3 1 3 5 4 0 1 1 1 1 3 6 3 4 1 5 10 8 1 2 3 2 3 4 2 6 5 5 6 7 6 5
3 2 7 17 18 14 12 5 2 5 5 6 5 2 1 4 5 7 6 3 1 1 4 7 9 10 11 9 6 7 6 5 7 7 5 6 5 6 7 7 8 5 2 5 4 1 1 2 3 4 3 3 5 5 3 1 2 4 5 6 5 4 2 3 3 3 4 4 3 4 2 3 8 7 6 7 6 4 4 6 3 4 4 3 3 4 6 6
3 3 4 14 19 15 15 10 2 6 8 5 3 3 3 6 6 8 8 3 1 2 3 6 9 10 10 7 5 8 5 3 8 7 5 6 4 5 7 7 9 6 1 3 4 5 4 4 4 7 3 6 8 7 7 6 5 7 5 5 5 5 4 4 3 3 4 1 3 3 0 3 4 4 3 3 3 2 4 6 5 2 3 2 3 2 4 7
2 4 3 9 17 16 16 14 6 6 9 5 3 4 7 8 5 6 7 3 3 2 3 6 8 9 8 4 2 7 3 2 8 7 5 7 6 6 7 8 11 8 4 4 3 5 6 5 5 5 4 11 11 7 6 7 3 5 3 3 5 4 3 2 2 3 2 1 2 2 4 5 4 8 10 6 8 9 7 7 6 7 4 1 3 7 7 6
3 3 4 5 11 14 16 15 9 9 10 6 3 5 8 7 3 2 3 0 3 6 7 6 5 5 7 3 1 3 0 1 7 6 3 6 6 7 8 7 11 12 8 6 2 3 5 3 1 3 3 9 8 4 4 4 2 3 3 4 4 1 2 2 1 1 4 2 5 3 5 6 4 11 12 8 11 11 9 8 7 7 4 1 6 8 8 7
3 3 4 4 7 12 16 15 11 13 10 5 6 7 4 3 2 0 2 4 2 10 9 5 4 4 6 4 2 4 2 2 6 5 3 5 4 8 10 7 9 14 12 8 3 2 5 2 2 1 2 3 1 1 1 2 2 4 4 4 1 4 1 2 1 2 1 5 5 3 8 7 3 8 5 1 4 6 5 7 8 9 7 6 8 8 9 8
4 3 4 7 9 9 13 15 14 12 5 4 9 8 2 1 2 1 4 5 2 8 7 5 5 5 7 6 5 7 6 4 6 5 5 5 3 8 12 8 7 12 13 9 4 1 3 3 3 2 1 2 3 1 1 3 3 4 2 2 2 1 2 2 3 2 3 5 4 4 8 6 6 11 7 6 6 5 6 7 8 8 8 7 8 8 8 6
3 3 3 7 11 9 13 17 13 6 1 3 7 6 4 4 5 2 3 5 3 2 5 6 6 5 6 7 6 8 8 7 8 6 5 5 4 6 11 8 6 10 12 11 6 2 2 3 3 3 3 1 2 1 4 1 2 2 2 3 1 2 3 4 3 3 3 4 5 5 6 6 9 9 7 8 8 7 9 8 7 8 9 8 7 7 6 5
2 2 1 9 14 12 15 16 9 3 1 2 3 3 3 4 7 8 3 3 3 2 1 3 4 5 7 7 6 8 8 8 8 7 5 6 5 4 7 9 6 7 10 11 8 3 2 3 3 2 4 0 1 4 8 7 5 3 1 2 2 1 2 1 2 2 4 4 4 4 6 8 8 5 5 6 4 5 5 3 4 5 6 5 4 4 5 6
2 2 1 11 17 16 16 10 3 3 3 2 3 3 3 4 5 9 5 2 2 1 2 2 1 1 3 5 5 7 7 7 7 6 4 6 6 3 4 8 8 7 7 7 7 5 3 3 4 2 1 3 5 7 9 10 9 9 7 7 8 5 4 2 4 4 3 2 3 4 5 11 8 3 3 3 2 3 3 6 4 3 3 3 2 3 6 6
2 2 3 11 19 19 13 4 3 3 3 4 5 4 4 4 3 6 6 2 2 1 2 1 0 0 1 1 0 3 5 6 7 7 5 7 7 4 3 5 8 10 8 5 7 6 3 3 3 3 4 6 4 3 5 4 4 4 5 7 7 6 6 5 5 4 2 2 3 2 4 13 10 1 2 4 2 3 4 6 5 5 5 6 3 3 5 5
3 2 4 12 21 18 9 4 5 4 4 4 5 5 5 5 4 5 5 4 3 2 1 1 0 0 1 1 2 3 1 3 4 4 4 5 4 1 1 2 7 10 7 4 5 4 3 2 3 2 1 1 1 2 2 2 2 1 4 4 4 6 7 6 5 4 3 3 4 3 6 13 10 1 3 4 3 3 3 4 5 5 5 6 5 5 4 4
3 2 1 10 19 15 7 6 7 6 6 4 4 7 7 5 6 7 6 6 5 4 3 3 1 1 1 2 3 1 2 0 0 0 1 2 1 3 5 3 4 5 3 2 3 4 3 3 4 3 1 1 1 2 3 2 0 2 3 3 4 6 6 4 2 2 2 6 9 6 7 12 8 2 5 4 5 2 3 3 3 4 5 7 6 5 3 4
3 3 1 5 12 10 6 4 4 6 8 7 6 9 8 5 7 10 9 7 6 3 3 3 3 3 2 2 2 1 1 1 0 2 2 1 1 3 5 5 4 2 2 3 2 3 4 3 5 6 7 8 5 3 3 3 2 2 4 6 7 8 7 5 3 3 6 10 11 7 7 12 11 3 1 2 5 2 3 2 1 3 5 6 6 6 6 6
3 3 3 4 5 6 5 3 2 3 6 8 7 8 10 8 5 9 10 8 8 6 4 4 4 4 3 3 2 4 4 3 2 1 0 1 1 1 3 4 4 3 4 6 5 2 2 1 4 6 9 9 5 3 4 6 5 5 8 9 8 9 9 6 4 6 9 9 9 10 10 14 20 17 11 5 3 3 5 5 6 7 7 7 7 8 7 6
3 4 4 5 3 5 6 5 5 5 5 7 7 6 10 10 6 6 8 8 9 10 7 5 6 6 7 8 7 7 8 7 5 4 5 4 1 1 2 3 3 3 5 5 5 3 4 2 5 6 9 9 5 3 1 5 6 8 9 9 9 9 10 9 9 12 11 7 9 12 10 13 21 23 15 7 7 9 9 7 7 7 7 8 7 7 7 7
4 3 4 6 4 5 7 8 10 10 8 7 6 6 9 11 9 7 7 5 7 10 8 5 9 11 11 12 9 7 8 9 7 7 7 6 3 0 2 2 2 2 5 3 4 3 4 3 5 5 8 10 8 8 7 3 4 6 6 9 11 11 12 12 15 17 13 9 11 12 11 13 18 22 17 6 5 11 11 7 8 8 8 9 9 8 8 8
4 3 3 4 4 5 7 8 9 11 11 8 6 7 9 12 13 10 7 5 5 9 9 8 11 13 13 12 10 8 8 9 8 8 7 6 5 3 2 0 2 2 3 3 1 2 3 2 4 4 6 10 11 10 10 9 9 7 7 8 9 12 16 17 18 19 16 14 14 16 17 17 16 18 18 10 8 12 12 9 10 13 13 11 9 8 9 9
4 2 2 2 3 3 4 6 7 8 10 9 7 8 8 10 13 11 8 8 7 8 10 12 12 13 13 12 10 10 10 10 9 9 8 8 7 5 4 3 2 2 1 3 2 1 2 3 4 4 3 9 13 12 10 9 10 10 9 9 10 12 15 16 15 14 13 14 17 18 18 18 15 13 14 15 13 10 11 13 13 13 14 11 8 8 9 10
8 5 3 2 3 4 3 4 6 7 8 8 9 9 10 12 13 9 7 9 10 8 10 14 13 9 10 13 13 12 11 9 7 5 5 7 6 5 4 3 5 4 2 2 3 3 4 2 1 3 4 7 9 10 10 8 6 7 9 12 15 14 12 11 9 9 12 14 15 14 13 14 13 9 9 16 16 11 12 16 15 13 13 11 9 10 11 12
11 8 5 2 3 5 4 3 4 6 7 9 11 12 11 11 10 8 5 6 10 10 10 13 13 8 7 12 14 12 6 3 3 2 3 2 1 1 1 3 1 6 5 4 3 4 5 4 2 3 4 6 8 7 6 4 2 5 11 16 17 15 13 12 10 12 15 12 9 10 11 12 13 10 11 16 18 15 13 14 14 13 12 10 9 10 11 12
Wind_Direction
187 190 189 187 188 192 195 192 184 187 180 182 188 190 199 203 205 207 207 205 205 207 210 215 216 225 232 244 264 273 279 272 240 227 218 244 233 175 188 200 218 216 221 220 214 237 248 239 227 203 175 181 231 109 188 257 21 250 156 218 239 234 214 173 132 110 139 141 156 173 183 168 147 166 143 143 174 134 153 148 135 99 83 101 122 132 135 147
187 200 194 188 193 191 193 191 187 197 187 190 194 194 202 202 205 210 211 208 204 207 209 213 215 223 228 241 259 269 278 255 246 246 217 212 197 174 181 191 204 196 204 199 212 233 241 225 177 188 203 179 157 124 216 145 165 246 177 222 240 237 350 16 60 58 54 126 154 169 201 198 148 156 143 163 183 178 189 182 169 141 106 114 130 139 144 152
189 201 199 192 194 196 196 190 202 215 204 201 200 200 207 205 206 209 214 212 208 209 208 213 215 220 227 235 251 261 274 248 260 244 188 177 172 169 166 169 177 177 196 202 238 257 280 292 186 186 224 189 190 161 173 136 157 248 119 219 255 66 43 27 50 61 23 27 141 151 206 216 131 137 145 202 197 181 195 197 184 181 165 153 150 151 153 158
192 194 197 195 197 203 200 201 220 230 220 214 208 205 210 207 209 214 216 215 213 212 209 213 214 217 223 229 246 250 267 245 248 165 163 167 165 162 148 138 144 165 200 209 268 282 291 292 219 191 241 197 153 138 168 165 136 70 86 187 326 353 37 38 43 48 19 352 83 118 115 223 122 115 155 192 212 208 207 202 196 199 186 168 161 159 161 165
194 193 197 198 200 206 206 210 224 238 232 224 211 203 202 204 213 218 217 219 218 212 211 214 214 215 216 228 237 201 115 194 170 143 158 162 162 156 135 117 102 129 180 185 280 270 261 265 228 204 260 190 134 157 172 144 96 183 129 84 20 356 34 49 48 31 353 330 54 109 128 198 102 104 189 199 222 213 182 149 137 149 170 160 158 158 162 170
200 198 197 203 208 212 214 215 221 224 230 233 216 205 201 203 213 220 221 220 220 217 213 215 214 212 211 224 212 168 175 194 89 153 162 158 161 149 124 105 80 92 147 190 273 255 244 247 219 203 246 198 161 176 146 121 95 277 120 76 36 19 57 42 51 19 336 344 62 105 288 44 93 208 209 210 230 197 118 98 88 60 95 140 149 153 163 176
208 208 208 211 213 220 224 221 228 222 216 224 220 219 213 208 212 219 222 220 224 220 214 215 213 211 205 185 155 161 232 263 95 168 167 157 157 142 115 86 62 83 124 267 259 226 225 230 209 213 234 214 177 167 125 130 137 230 180 90 43 38 74 50 59 30 350 16 24 354 311 287 188 240 274 218 229 223 145 110 110 99 106 132 144 158 173 181
218 221 226 227 220 219 230 229 236 235 226 224 211 220 219 210 210 216 219 219 223 219 217 216 208 206 186 157 141 190 214 177 135 166 171 163 156 139 105 64 39 28 326 280 273 259 243 227 223 229 221 238 163 144 154 166 171 242 162 109 100 69 88 82 91 101 29 31 1 350 282 259 170 91 333 253 229 231 200 127 125 123 121 141 155 167 178 182
224 227 233 241 238 228 235 235 240 242 240 239 221 220 217 208 208 209 213 214 218 218 217 212 206 203 182 165 188 248 197 150 150 167 173 169 157 134 95 53 21 328 289 263 282 294 282 236 238 254 89 318 116 127 162 169 178 255 112 118 133 109 99 113 123 118 112 194 22 306 254 239 104 77 272 250 235 227 207 149 141 138 141 164 170 177 180 182
227 230 233 246 249 236 233 237 246 245 244 251 236 230 218 209 208 205 206 207 211 213 212 209 203 185 172 176 214 234 187 135 145 164 174 172 156 130 89 29 286 302 283 232 295 306 316 335 327 13 22 360 92 81 31 55 311 14 110 108 114 123 124 193 153 127 166 134 128 271 274 253 122 121 256 252 246 213 191 163 156 154 168 186 187 191 187 185
228 231 237 248 245 229 230 238 245 246 245 241 225 232 227 218 213 207 204 200 202 205 204 202 195 178 162 190 228 218 210 151 153 156 165 171 160 146 121 274 223 328 316 156 59 357 3 354 347 11 9 82 105 50 39 22 287 106 119 102 114 150 142 196 185 150 183 127 236 281 302 284 145 178 242 229 129 154 165 177 179 178 192 203 204 200 193 195
226 231 241 245 233 221 229 236 241 245 238 213 201 232 231 218 215 210 206 198 198 199 196 192 189 177 150 222 251 182 138 149 154 150 156 164 156 153 146 227 205 316 327 350 96 44 67 15 355 33 7 346 118 91 75 239 274 118 157 132 150 174 159 194 185 156 188 189 253 338 314 272 206 224 244 204 140 141 162 189 196 198 204 211 216 204 193 198
227 234 238 230 216 216 227 229 236 235 208 209 221 231 214 206 215 215 209 199 197 195 189 186 181 166 143 243 190 123 131 144 145 142 144 142 132 129 130 116 137 124 335 82 115 102 101 49 10 67 31 351 95 139 215 209 54 145 221 239 153 184 210 196 169 143 168 143 219 101 315 266 226 235 244 175 150 155 169 199 202 203 205 206 211 204 197 194
227 231 220 206 203 211 221 220 228 228 213 230 224 203 189 188 204 211 209 202 197 191 181 175 165 150 135 285 108 111 132 136 133 140 141 130 116 107 103 103 104 109 100 105 107 105 99 65 43 94 47 18 96 176 190 125 127 163 168 307 205 203 211 172 144 153 176 285 225 143 247 269 278 279 275 132 152 157 182 211 213 215 212 204 199 201 208 199
223 219 198 195 200 205 212 211 217 229 232 222 187 172 169 178 189 191 199 196 187 181 173 171 160 143 160 258 107 126 134 129 134 155 149 136 131 123 110 108 104 99 102 103 95 88 82 61 78 107 59 7 112 141 142 143 227 190 128 274 238 215 238 129 129 164 170 290 212 158 229 264 271 269 94 102 122 143 213 235 232 232 226 210 194 193 207 214
215 205 191 192 198 201 205 204 209 223 227 197 156 149 152 161 166 166 176 169 156 157 147 156 172 179 287 173 130 138 146 147 162 165 155 145 136 131 128 114 97 88 90 96 92 82 65 47 47 108 93 172 182 179 167 151 222 212 175 239 219 194 197 174 305 206 128 127 205 208 252 275 271 176 140 154 147 158 215 248 249 247 244 227 203 194 201 211
204 197 187 186 190 195 195 196 205 206 189 156 136 132 134 133 140 140 135 131 120 131 136 44 170 179 307 112 133 164 164 157 165 167 162 149 129 133 140 128 105 107 105 93 87 78 41 46 64 260 98 180 223 204 165 177 229 209 193 242 228 181 194 183 316 320 149 201 243 226 235 258 275 275 250 214 181 174 196 222 236 240 241 234 216 206 205 204
189 186 182 183 184 186 188 197 203 187 151 135 126 124 124 121 122 115 115 126 105 92 82 325 167 178 245 170 142 125 135 146 158 164 165 153 138 149 159 149 144 148 142 123 353 132 35 29 20 223 154 221 237 193 175 203 229 187 183 222 223 209 240 232 125 180 180 202 264 240 240 249 261 273 273 252 211 195 206 213 220 231 236 239 233 225 218 208
179 181 182 182 183 185 188 201 205 169 136 124 121 118 113 111 112 111 128 146 128 99 200 203 180 175 138 148 115 87 115 139 145 148 163 158 149 159 176 170 165 173 168 155 246 244 101 95 26 256 183 205 222 203 205 214 33 30 127 196 245 247 255 172 112 177 190 180 240 240 250 254 253 261 268 265 240 218 221 219 217 225 231 238 239 239 236 226
172 176 178 173 177 182 186 210 208 159 139 131 129 121 116 125 125 134 163 196 224 291 32 151 175 139 97 103 99 105 110 122 126 124 163 164 155 164 189 181 131 352 220 169 161 224 66 131 186 219 210 207 211 205 194 55 39 11 9 2 315 330 351 94 108 351 356 334 244 240 253 262 259 259 262 266 266 257 245 239 237 229 226 230 231 239 242 238
165 159 159 159 163 165 176 215 199 163 157 150 150 166 153 149 169 157 148 214 245 158 60 54 85 73 93 119 136 139 116 94 116 131 164 176 170 169 185 179 139 194 224 135 108 81 71 172 212 217 210 150 176 162 93 52 30 25 4 346 321 271 224 68 87 207 37 45 266 273 278 273 266 261 265 262 263 261 248 240 242 236 234 233 228 238 243 242
174 165 154 151 151 150 165 208 190 175 171 165 185 247 348 40 195 142 121 205 223 153 104 100 102 85 88 128 160 185 183 139 136 140 172 183 184 178 166 176 184 181 167 107 94 102 128 219 232 210 135 80 59 57 63 31 16 60 114 327 313 259 151 58 44 10 86 127 268 293 298 283 276 265 260 256 252 253 242 231 236 234 236 237 228 235 241 239
182 174 164 156 149 153 173 206 181 176 172 179 221 258 318 341 19 93 82 231 182 165 159 183 185 141 113 135 192 211 202 156 152 165 178 177 182 193 158 177 200 172 156 155 154 162 164 227 228 143 101 98 76 65 80 63 7 177 193 208 251 238 130 48 319 291 221 212 277 307 301 281 280 271 255 244 238 248 250 240 241 234 229 232 231 236 235 226
185 178 173 165 154 163 187 360 99 159 190 209 244 255 272 300 360 71 267 287 142 164 189 173 200 167 146 147 182 196 230 150 143 157 175 181 164 152 179 189 203 188 175 185 190 201 187 223 194 97 98 134 118 118 141 155 223 221 203 201 226 243 100 99 40 305 245 225 327 325 311 273 271 268 265 252 228 239 252 248 248 244 235 235 241 246 242 226
191 188 181 172 174 178 177 357 53 208 216 225 247 241 248 285 340 51 126 248 185 143 353 159 183 190 154 131 160 183 72 91 41 135 171 189 156 139 197 203 204 205 193 188 202 221 206 287 50 111 114 151 138 161 182 178 216 242 214 203 236 278 29 74 39 357 338 327 301 359 334 287 296 291 282 302 279 241 243 236 240 246 244 238 243 246 243 242
204 199 193 186 190 181 141 44 173 194 197 198 245 237 244 262 338 70 119 291 234 167 124 164 167 177 161 144 156 140 87 175 9 94 156 185 266 129 186 183 134 214 204 185 199 229 161 319 20 120 132 132 146 217 193 170 196 261 260 330 328 12 64 72 30 27 16 290 249 127 321 277 300 291 277 285 280 261 246 237 241 246 244 232 228 230 230 235
216 211 204 198 195 180 153 62 164 174 163 180 248 231 232 229 180 83 110 311 254 165 143 166 202 176 165 162 168 148 125 165 102 69 126 163 226 47 114 171 126 215 242 115 126 241 128 137 94 116 128 132 163 228 179 160 162 240 258 311 352 89 92 102 70 139 225 307 271 176 173 269 279 263 255 258 264 265 254 246 249 248 247 237 215 210 212 208
218 218 212 205 201 187 139 59 163 174 65 354 274 219 206 198 182 82 128 222 226 146 144 172 126 143 143 155 175 157 111 141 137 105 48 82 164 45 91 198 172 188 207 114 161 274 101 154 160 152 154 158 171 221 185 165 154 229 238 276 93 97 97 120 100 246 292 1 299 203 150 277 270 240 233 239 249 263 252 236 237 240 245 236 187 174 171 153
216 216 214 209 205 198 179 133 223 227 7 350 301 192 179 181 195 51 128 207 172 122 123 141 128 130 128 138 169 154 112 95 88 159 105 90 78 44 188 245 229 190 189 184 182 352 23 178 179 156 165 178 134 34 349 157 149 207 198 98 78 86 68 70 85 31 16 339 256 194 157 254 277 242 196 212 232 248 243 225 228 236 231 192 139 134 130 115
230 209 211 206 197 199 206 234 256 248 306 337 100 154 154 158 180 144 169 212 171 112 77 106 136 150 153 149 158 171 144 79 58 124 144 157 101 329 232 353 310 192 167 190 143 72 111 160 180 144 141 143 116 66 17 61 121 157 158 92 73 66 44 40 39 71 49 286 250 181 176 187 292 271 165 181 215 212 216 227 227 188 120 127 126 133 147 151
228 198 207 201 191 193 198 224 239 236 291 11 130 138 148 95 291 186 185 225 300 132 129 153 140 148 166 164 155 181 158 112 141 146 139 153 125 304 243 145 360 36 53 340 18 107 144 114 115 38 360 117 109 71 19 25 75 112 132 113 87 23 26 24 356 59 130 257 288 205 188 179 244 271 98 92 172 174 199 239 191 143 127 132 148 164 170 172
206 188 198 200 199 195 189 170 195 206 331 127 137 130 159 151 232 224 192 92 227 188 159 167 159 158 178 173 156 177 163 135 168 165 150 162 166 186 201 188 153 117 220 220 200 66 183 204 152 67 329 193 124 86 29 3 360 53 146 129 116 360 16 355 263 146 218 241 287 326 271 206 240 254 285 322 308 318 283 274 155 135 151 167 174 185 184 176
214 199 194 202 204 198 197 204 160 163 137 122 127 58 110 173 206 214 196 155 190 194 134 150 159 162 176 178 164 166 160 150 172 175 159 163 179 195 208 211 183 181 211 177 171 161 241 275 139 108 333 240 172 144 128 279 221 189 170 145 151 168 190 234 220 213 234 239 291 332 16 254 261 271 262 248 257 297 301 277 253 142 178 225 192 175 182 187
238 206 192 205 206 203 207 216 215 163 150 114 82 92 147 203 207 200 201 187 86 44 98 140 150 158 173 185 164 154 157 167 166 169 164 162 186 201 207 222 207 205 196 165 181 175 200 281 188 171 179 181 195 193 167 160 177 198 189 161 177 173 182 209 188 214 231 216 305 317 307 210 229 269 254 198 216 298 338 307 293 263 244 299 347 292 229 213
295 223 206 204 207 211 213 215 223 179 157 113 69 142 184 209 207 198 203 171 116 105 98 132 142 156 176 195 166 160 159 162 167 172 176 176 197 197 190 207 207 203 178 189 209 168 200 249 182 163 159 166 186 208 167 134 155 217 199 184 217 201 176 192 172 180 153 43 289 230 243 227 218 276 276 261 261 261 268 277 281 284 286 17 320 289 273 241
356 262 244 213 211 216 215 215 211 174 155 114 107 186 206 209 206 189 187 141 165 146 123 134 147 160 175 179 236 194 108 93 166 174 191 197 214 208 198 197 196 198 189 183 201 153 181 247 111 90 140 166 181 214 172 138 172 201 173 202 220 132 126 191 269 71 99 267 258 184 258 283 313 293 275 243 255 263 252 241 244 262 259 235 267 267 272 259
358 294 259 251 230 220 217 214 190 167 158 129 164 200 216 213 248 359 4 336 168 144 133 150 177 184 177 166 194 193 155 114 165 174 184 192 219 214 211 210 190 197 200 191 212 185 159 208 302 67 155 198 280 322 64 51 88 135 170 207 138 43 23 146 215 352 127 246 259 189 248 278 305 282 290 29 297 294 258 221 223 241 228 221 246 250 261 260
328 288 269 257 237 218 213 207 183 167 162 142 179 206 210 208 273 26 7 328 173 153 167 179 174 189 184 174 185 181 168 161 175 187 181 178 220 207 200 211 192 194 203 197 208 251 150 189 287 354 4 318 1 38 176 17 51 118 167 236 107 125 246 145 173 234 208 238 266 247 253 262 238 248 282 325 312 303 271 234 216 226 215 215 240 246 251 248
297 266 270 227 216 214 202 190 172 155 145 148 182 207 196 220 266 315 6 337 329 185 201 193 180 196 198 185 174 170 176 178 170 180 190 179 214 205 187 195 196 188 192 192 201 225 137 186 241 327 330 360 35 223 193 180 13 48 3 337 94 160 187 174 189 194 182 218 251 270 275 256 238 244 269 273 262 260 261 250 227 214 204 213 228 224 215 204
250 256 221 180 192 201 182 168 155 143 155 158 188 200 172 203 248 259 280 15 5 342 302 227 201 193 206 204 176 161 180 190 173 182 205 179 190 226 187 178 181 177 179 185 195 184 129 188 205 320 331 352 165 214 188 174 181 186 233 229 196 147 114 167 258 195 175 193 228 257 269 261 250 233 238 245 253 270 264 238 221 193 176 204 216 183 171 172
223 257 183 166 177 175 158 151 166 181 175 188 212 224 197 183 226 248 245 101 84 337 16 341 258 180 221 217 181 156 168 191 184 182 203 191 194 238 195 173 167 163 168 181 194 184 162 186 176 148 275 217 213 216 197 190 190 189 195 197 198 187 147 189 250 224 180 177 218 224 258 271 263 171 207 264 21 353 49 79 62 55 51 327 310 166 161 163
221 228 150 163 172 161 148 175 221 176 199 202 189 197 200 187 197 229 225 142 104 299 360 357 229 59 319 279 100 128 152 187 197 187 198 205 202 208 203 186 164 156 156 172 196 189 135 138 174 180 200 205 218 215 190 188 184 200 220 207 198 188 169 186 213 214 196 209 245 240 255 267 265 146 304 301 61 69 59 52 9 343 326 316 301 205 181 170
220 209 139 166 175 162 149 213 206 196 229 197 170 179 185 188 184 191 202 187 167 175 198 279 345 50 332 45 41 22 80 183 197 189 195 202 200 228 300 160 153 157 155 157 187 180 93 116 187 212 203 160 41 15 25 53 97 237 256 209 184 196 190 191 194 188 186 192 211 212 240 264 272 190 214 226 136 83 15 350 321 301 293 289 264 232 201 190
218 240 119 172 181 176 179 211 202 209 220 188 175 193 193 200 193 182 188 194 189 169 173 206 209 174 294 64 87 7 340 29 260 321 166 180 167 18 16 46 124 148 151 135 173 174 160 173 173 173 226 243 319 349 351 343 160 234 246 200 199 206 181 167 179 178 220 212 205 204 232 257 267 108 127 140 120 148 249 240 236 262 282 284 284 284 259 230
212 233 259 185 192 199 214 220 209 215 212 203 205 200 193 200 200 193 190 187 190 178 165 192 181 156 151 83 94 293 317 110 251 337 35 26 325 17 18 18 38 48 66 60 69 160 177 195 174 183 216 223 224 227 214 210 195 223 227 206 205 200 175 157 149 174 225 226 217 219 240 256 263 252 165 91 94 146 235 244 281 289 279 276 289 294 276 268
208 211 202 179 195 219 238 263 271 244 209 200 212 209 200 202 200 194 196 193 190 191 191 188 171 161 172 172 186 251 259 221 214 277 316 233 261 3 11 13 25 45 75 56 31 87 138 227 200 202 227 227 220 219 171 149 155 202 220 211 205 201 193 183 169 196 222 232 234 232 236 259 269 263 255 275 326 295 284 306 314 297 277 263 259 261 263 268
220 218 197 177 187 220 230 236 236 242 223 200 204 206 202 207 205 189 198 202 188 189 203 198 177 177 187 194 204 226 234 229 224 238 245 242 234 33 19 16 33 87 95 54 8 72 112 236 230 223 245 247 247 265 158 126 166 207 215 209 210 213 206 201 213 225 224 226 244 241 228 247 266 267 264 267 284 282 279 281 278 271 270 268 263 261 263 266
220 238 208 191 201 212 214 218 216 221 230 223 215 210 203 207 210 197 197 210 196 189 196 201 195 195 189 187 193 201 205 210 215 222 232 239 233 180 35 18 21 100 106 58 2 81 120 230 238 231 254 262 269 281 286 275 230 221 218 212 207 209 211 212 224 233 229 226 247 252 240 239 257 270 274 263 261 277 283 285 279 275 274 274 276 272 262 262
219 265 252 216 225 222 214 211 207 214 225 229 229 221 209 208 213 205 179 178 207 201 197 204 203 201 197 188 188 198 193 193 208 214 209 208 207 203 203 250 354 18 98 108 60 90 117 231 240 230 263 271 268 269 272 275 275 266 252 241 222 212 214 216 224 231 232 236 247 255 257 254 254 267 280 284 271 277 289 294 288 284 280 275 273 270 261 259
207 228 256 269 262 251 242 211 192 204 218 221 229 229 224 220 218 212 185 176 189 196 200 212 210 199 201 198 196 206 200 192 206 209 194 195 201 205 212 190 141 11 53 119 129 156 155 208 219 187 236 268 262 259 257 255 261 265 263 257 248 237 227 223 225 231 235 241 245 250 259 263 259 265 283 286 280 282 290 285 278 277 280 282 280 272 267 264
231 268 289 296 250 229 252 231 193 197 208 212 222 223 225 228 221 215 204 189 186 185 192 209 215 204 204 210 214 221 217 207 214 202 175 193 199 194 216 200 154 150 155 141 139 157 174 194 184 152 200 250 248 245 251 245 241 257 262 252 245 244 242 235 225 222 227 234 241 248 254 261 266 273 280 280 281 280 278 278 279 278 279 282 280 274 271 268
231 275 282 277 256 223 221 240 217 208 206 208 217 218 218 228 223 215 219 199 192 194 191 200 209 206 209 219 221 223 219 184 171 113 108 138 38 75 268 304 120 146 163 167 148 154 172 171 157 160 199 251 242 225 239 253 229 235 240 238 237 238 242 246 244 236 232 228 231 241 244 253 269 278 270 271 277 276 272 275 278 279 279 275 268 266 267 267